Location: downtown San Diego
(32.7310°N, 117.1990°W)
Time: 06:56:56
(UTC-07:00)

Cosmos 1943 - Pass Details

Date: 14 June 2018
Orbit: 833 x 851 km, 71.0° (Epoch: 25 June)

Event Time Altitude Azimuth Distance (km) Brightness Sun altitude
Rises 22:28:15 0° 336° (NNW) 3,409 7.7 -24.6°
Reaches altitude 10° 22:30:43 10° 333° (NNW) 2,468 6.7 -24.9°
Maximum altitude 22:36:19 66° 252° (WSW) 912 3.3 -25.6°
Enters shadow 22:37:12 57° 206° (SSW) 980 3.3 -25.7°
